GFSCGP_250_spd_000.txt.gz
Wind_Speed
42 42 44 53 46 38 36 36 37 43 49 43 36 30 30 39 46 47 44 45 41 36 35 34 35 37 47 50 51 52 51 53 53 55 57 59 60 59 61 61 59 58 57 57
49 45 54 55 52 47 45 42 38 38 46 43 38 30 34 38 45 51 47 49 44 40 38 37 36 35 38 43 43 47 50 53 55 57 56 57 58 59 58 58 59 59 59 60
55 51 59 59 56 56 51 51 49 44 45 42 41 30 39 40 41 49 52 51 47 44 41 39 38 38 38 39 40 40 42 45 49 51 51 53 54 55 55 57 59 60 60 60
56 64 62 59 60 69 55 65 58 54 50 41 45 26 41 46 44 45 49 55 58 55 50 46 45 43 42 44 46 48 50 50 51 52 53 54 55 57 58 60 63 64 65 64
68 63 66 63 68 70 65 72 70 66 59 51 47 45 35 46 50 49 50 55 57 59 58 57 54 51 51 50 50 53 55 56 57 55 55 55 57 59 62 65 66 67 68 68
60 65 70 73 70 73 80 84 80 73 73 53 58 62 33 51 52 53 52 54 51 59 58 59 62 61 59 58 59 57 58 58 58 58 58 59 62 63 64 66 70 73 74 73
82 80 74 80 85 82 87 88 90 78 76 79 78 69 52 57 59 61 61 60 57 56 59 62 64 64 63 62 62 61 62 60 58 58 60 61 62 64 66 70 73 77 79 78
85 74 83 82 85 91 94 88 93 103 90 75 84 74 61 67 65 61 55 62 68 66 60 61 70 71 70 69 68 68 67 66 65 64 63 65 68 71 74 76 78 81 83 83
100 90 87 87 94 92 95 94 101 108 103 101 85 78 71 75 70 68 72 74 70 75 76 71 74 78 74 74 74 79 74 73 69 72 72 74 78 79 82 84 86 85 87 91
111 119 101 101 100 99 104 105 104 111 117 114 108 100 91 94 86 88 90 82 89 73 78 89 80 81 81 79 85 86 83 79 77 82 82 81 83 90 90 94 95 90 92 93
124 128 113 107 106 113 115 123 123 122 124 126 124 117 103 101 98 100 95 99 101 95 97 99 96 93 89 90 87 86 89 89 86 89 92 91 91 96 96 94 98 103 97 99
128 132 134 119 122 121 123 136 141 138 132 131 137 137 112 107 110 104 101 102 107 101 100 107 104 100 102 102 99 99 98 92 99 95 95 99 103 104 101 98 100 102 102 103
132 137 139 142 134 129 148 146 146 144 152 148 145 142 124 119 112 105 107 106 104 106 107 104 107 110 111 111 110 103 102 101 98 102 103 100 107 104 108 107 105 107 108 110
133 134 140 149 147 144 155 149 143 140 149 151 152 144 127 108 100 97 100 103 103 106 107 105 109 110 114 116 115 110 103 106 104 103 101 102 108 111 108 111 115 117 115 116
146 149 150 150 154 159 151 145 142 142 132 141 134 135 123 115 101 105 104 96 103 109 113 114 116 108 107 108 108 109 109 106 105 105 105 106 112 117 119 114 112 117 119 115
151 148 142 140 128 116 116 118 114 110 112 125 131 132 123 118 115 115 111 108 114 114 114 107 107 105 107 110 107 111 107 101 96 96 95 102 110 117 113 103 100 100 105 105
130 128 126 121 119 117 113 97 96 100 108 110 111 111 120 120 119 118 119 113 112 111 116 108 113 109 103 109 108 106 105 104 101 102 100 99 100 102 98 101 104 104 105 105
117 118 118 113 110 118 111 110 109 98 105 109 111 117 117 115 111 117 124 126 126 124 117 120 105 120 118 101 110 130 131 115 114 108 106 107 112 110 110 116 121 111 111 111
129 128 127 127 124 121 117 123 118 112 113 111 113 112 112 111 105 109 110 106 110 118 125 126 127 128 131 131 135 137 137 134 130 124 121 124 120 116 116 121 116 120 121 123
117 121 126 125 125 119 119 119 121 118 118 117 114 111 106 107 98 107 109 111 112 109 111 112 112 116 120 125 128 125 125 127 126 126 123 117 116 117 122 116 117 124 125 126
112 115 123 124 126 123 119 115 115 119 121 120 121 117 107 101 97 101 103 101 106 111 109 108 108 110 112 114 117 114 114 114 111 112 110 110 110 112 110 107 110 113 113 114
112 115 116 123 125 123 119 122 123 116 115 117 121 119 118 108 105 107 107 101 101 101 100 98 100 101 106 111 113 112 112 110 111 111 108 107 107 107 107 106 107 109 108 107
112 115 113 114 112 114 118 122 120 116 116 117 114 114 111 107 103 107 109 108 106 104 104 102 101 97 103 105 106 108 111 111 111 111 110 107 107 108 109 109 110 110 108 107
110 111 110 109 105 107 109 114 118 114 115 113 111 109 110 107 103 105 105 103 105 105 109 109 108 103 103 103 103 104 106 109 109 108 111 109 110 109 109 109 109 109 109 109
100 101 104 102 102 109 100 103 104 107 107 106 107 106 106 106 103 103 104 102 102 100 103 104 102 97 99 99 96 97 102 102 102 103 107 106 107 107 108 107 106 108 107 107
97 98 103 99 100 101 94 101 101 94 94 95 95 97 99 100 99 101 99 101 101 101 101 101 104 100 100 104 102 100 102 103 102 101 105 104 103 101 102 104 103 102 105 105

GFSCGP_250_spd_003.txt.gz
Wind_Speed
51 45 44 54 49 47 45 42 40 42 46 38 35 29 37 42 47 50 48 51 50 46 44 42 41 39 42 42 40 44 54 60 59 58 57 58 60 59 58 58 60 64 63 64
51 48 53 53 54 53 51 49 44 43 47 42 38 29 32 40 45 52 54 50 51 51 48 46 42 40 40 43 46 45 43 48 56 61 62 62 60 60 63 63 63 61 61 62
51 50 59 58 57 63 60 60 54 44 47 42 38 27 35 44 47 48 50 52 54 51 52 53 51 46 43 44 47 49 47 45 43 49 51 55 58 60 61 60 58 57 58 59
55 63 65 60 54 66 55 66 64 62 56 48 49 30 38 44 48 49 48 46 52 54 55 55 58 57 54 54 51 52 51 51 50 50 50 51 53 53 55 55 55 56 58 59
69 69 67 64 67 73 54 66 71 67 69 67 52 55 47 44 48 50 54 57 58 62 64 61 57 58 62 61 59 57 58 57 58 58 57 58 60 60 59 58 58 58 60 62
71 75 67 66 72 73 76 80 86 85 77 64 63 75 37 55 53 58 56 55 60 57 61 70 71 68 66 66 65 66 67 67 67 65 63 63 64 65 65 63 63 65 67 67
77 83 82 84 83 87 86 87 92 96 94 91 83 75 51 54 60 61 61 65 66 66 71 67 72 78 76 72 70 67 67 72 72 72 72 68 68 67 68 67 69 69 69 69
86 82 89 91 91 92 93 96 102 106 102 100 97 89 67 75 71 71 71 74 80 77 80 79 67 73 81 77 68 70 69 65 74 76 76 76 75 74 72 72 73 74 75 75
102 98 95 99 101 100 104 108 107 115 117 114 104 104 97 86 88 83 81 85 88 95 98 95 91 86 84 86 84 80 83 82 86 81 76 82 80 77 76 78 80 79 81 84
116 118 103 105 108 106 116 116 117 120 123 123 121 116 109 97 93 97 89 91 94 98 99 100 104 98 95 92 95 96 95 96 93 93 88 81 85 82 83 84 82 84 89 92
129 125 118 119 115 117 123 123 122 128 131 133 136 133 117 106 100 100 106 107 108 114 110 108 109 111 107 109 109 102 104 100 94 101 104 100 93 90 93 91 93 97 98 100
132 141 141 135 127 128 131 125 121 132 137 142 144 141 127 121 114 109 106 116 123 112 118 120 112 111 112 108 111 108 102 101 100 100 103 107 104 99 101 102 102 101 106 104
142 144 148 150 142 135 142 134 134 137 141 142 143 139 130 120 122 122 122 123 129 129 124 119 116 106 105 109 112 104 105 108 113 103 106 104 107 106 109 109 109 110 108 111
145 150 147 149 148 148 142 142 138 140 142 139 140 138 132 125 126 119 128 133 131 129 113 108 113 97 92 93 95 96 102 109 113 106 104 103 109 111 112 113 116 117 117 114
145 148 148 149 151 150 156 146 142 138 133 138 137 139 135 135 128 125 109 101 101 109 109 112 105 106 106 96 97 92 94 97 104 105 107 111 111 111 115 115 117 118 118 117
123 125 126 132 136 141 142 137 129 134 136 136 135 125 122 110 106 107 102 102 101 103 111 115 112 111 110 109 110 103 100 104 102 106 110 108 109 110 109 112 116 117 112 116
111 112 112 112 108 116 104 98 116 120 116 112 113 111 114 115 105 101 99 93 92 90 94 101 108 116 116 118 118 117 110 109 111 109 107 104 104 97 98 99 101 108 116 111
112 117 117 114 114 117 100 103 109 116 118 118 120 119 116 117 116 114 109 105 104 103 93 92 98 107 110 109 117 119 121 117 113 113 110 108 110 106 104 103 105 106 111 113
124 125 126 124 120 119 106 109 111 112 117 118 115 112 111 108 104 105 105 100 95 98 97 94 95 99 104 110 110 108 115 123 122 121 121 123 120 120 122 118 117 122 126 129
125 125 127 122 122 120 112 113 115 117 118 116 115 112 111 110 110 105 113 106 101 102 99 98 96 95 95 99 102 102 109 116 115 112 117 127 135 136 131 130 132 131 129 125
115 119 122 124 127 120 113 113 114 120 114 115 114 114 112 108 108 103 109 112 108 105 106 103 101 103 96 96 96 100 103 109 111 112 109 108 110 114 117 118 120 121 121 118
108 111 114 118 121 118 119 118 117 116 109 109 113 111 107 105 105 104 101 101 103 107 107 107 104 102 98 97 99 97 98 102 103 109 107 108 107 107 108 112 114 114 113 112
107 110 110 112 109 110 114 116 113 115 110 107 105 103 104 102 101 100 98 99 100 102 104 107 102 98 97 97 100 100 101 101 99 103 103 104 102 104 107 108 108 108 106 107
102 106 105 106 102 104 104 106 108 108 104 103 103 102 102 99 98 97 97 95 96 98 99 102 101 97 93 96 97 101 102 103 100 100 104 103 100 102 103 105 108 107 106 105
92 101 107 101 98 109 100 102 102 102 102 100 99 99 99 99 97 97 94 95 96 96 96 96 96 96 94 97 95 99 102 103 104 97 99 98 99 98 101 102 105 106 107 107
95 98 104 100 96 103 93 97 99 96 94 91 91 92 92 90 87 91 89 93 95 94 93 91 91 90 89 91 91 96 103 100 101 98 96 95 96 96 99 99 100 101 103 103

GFSCGP_250_spd_006.txt.gz
Wind_Speed
44 41 42 50 48 41 40 40 41 45 49 38 31 27 32 41 44 48 47 48 46 47 49 47 44 41 36 37 39 41 43 45 46 49 52 57 63 64 63 62 61 61 62 61
50 46 53 47 48 50 52 53 48 46 52 46 39 30 33 37 43 46 50 53 52 52 52 54 51 49 46 42 39 43 44 45 47 47 48 51 54 59 65 66 66 65 65 63
53 56 61 61 58 59 60 55 54 48 49 46 44 33 31 36 44 47 46 50 55 54 54 55 53 50 47 49 48 48 49 51 51 49 50 51 51 51 53 59 62 63 63 65
60 65 66 64 65 76 69 76 63 51 52 47 49 27 33 39 49 55 52 49 50 56 56 59 61 61 61 59 57 56 52 53 56 57 57 57 56 56 56 53 53 55 55 56
73 73 76 76 78 78 74 80 81 75 72 61 50 52 41 52 48 52 60 62 63 62 62 64 66 64 63 61 59 60 63 61 58 59 60 63 64 63 64 60 60 61 60 61
80 84 80 82 83 85 89 83 86 90 79 78 80 76 41 57 62 67 64 71 68 67 67 63 70 73 72 71 70 68 66 69 70 68 66 64 67 71 70 70 68 67 66 67
90 84 91 88 91 92 91 97 93 91 93 83 91 97 78 79 77 79 83 84 79 77 79 75 76 80 82 81 78 78 70 69 70 73 70 71 72 72 75 76 76 74 70 70
93 85 89 95 95 95 97 99 102 104 99 101 104 106 98 95 86 89 98 101 102 101 90 88 82 84 86 86 87 84 88 88 81 77 75 75 73 79 76 76 76 76 80 81
98 96 95 94 97 100 102 105 106 113 114 118 110 109 111 103 101 100 105 102 108 108 107 96 94 88 92 91 95 95 92 90 93 91 92 90 80 80 81 79 76 82 84 84
112 116 106 104 107 110 115 113 114 119 128 129 125 122 120 105 103 107 108 110 110 112 110 105 100 97 97 100 98 98 99 102 98 99 100 100 97 90 90 91 96 96 94 92
123 120 116 117 116 123 123 124 127 128 132 137 138 134 114 108 106 110 117 116 113 110 110 109 110 111 101 99 99 96 100 107 113 109 102 104 102 103 100 100 102 105 105 101
126 132 133 132 129 134 132 136 138 135 137 141 150 152 123 116 114 118 116 118 114 113 112 114 117 117 111 105 99 103 102 104 114 122 111 105 110 109 109 109 110 110 109 108
140 146 146 148 147 141 146 143 142 139 136 145 152 149 130 131 129 123 121 119 117 115 116 122 121 120 120 115 109 105 101 103 111 118 120 110 111 115 114 116 117 117 112 116
158 155 155 156 157 154 149 137 133 136 141 142 145 147 139 137 137 137 132 128 122 126 128 127 131 123 119 122 123 119 118 117 112 115 107 112 117 118 113 117 119 121 124 120
163 162 153 151 150 147 146 141 131 123 126 145 144 140 136 128 136 135 131 122 122 128 125 123 118 113 116 113 115 114 110 104 100 102 100 98 105 103 110 116 116 112 113 117
138 137 134 131 120 128 121 114 112 117 120 126 115 112 111 110 106 108 108 105 104 92 89 90 94 92 98 104 101 102 105 108 103 101 103 105 106 109 105 104 109 110 115 116
126 124 122 122 120 126 117 106 114 108 108 116 118 113 109 106 105 105 107 109 104 98 102 99 94 89 93 100 100 99 107 111 114 114 109 111 111 112 110 109 107 104 109 112
126 126 128 125 120 116 109 109 112 114 117 116 118 117 116 110 107 110 108 111 110 106 101 101 100 87 89 90 98 102 101 102 102 105 106 106 107 115 114 113 112 111 112 109
124 124 124 122 119 112 101 103 106 110 108 109 111 110 110 109 103 106 106 107 108 107 107 106 104 97 88 92 88 93 107 108 109 108 109 108 110 113 116 114 111 110 110 110
117 119 122 120 119 115 105 107 111 110 109 111 110 108 108 108 107 103 110 108 107 104 103 103 104 103 99 95 98 92 93 100 108 112 114 113 113 114 115 115 112 113 110 109
107 110 111 109 114 110 106 104 106 109 109 108 109 109 109 108 107 105 106 109 109 108 107 106 102 101 100 100 97 97 96 99 101 103 104 109 112 111 113 116 113 113 114 114
101 103 105 110 109 104 105 108 107 109 109 107 105 104 104 103 101 101 99 99 102 105 106 106 103 101 100 99 99 99 97 99 101 103 106 108 111 110 111 112 114 113 115 114
97 97 103 104 100 104 106 104 104 104 102 98 98 97 99 97 95 94 92 91 93 96 98 101 101 100 100 101 99 95 98 97 99 101 102 101 105 105 108 115 115 114 116 115
89 94 96 98 90 97 98 96 98 98 99 96 97 97 98 98 96 93 92 90 90 91 92 94 95 94 93 99 97 95 91 91 91 94 99 99 96 96 105 111 112 114 113 112
84 89 96 89 84 98 93 92 96 96 98 97 96 95 95 93 92 92 88 89 90 89 91 92 90 89 87 91 90 94 93 89 87 88 90 93 94 95 102 104 106 112 113 113
91 88 92 88 90 97 92 95 97 97 96 93 90 90 91 91 88 89 85 86 86 85 86 86 87 87 87 87 87 91 92 88 84 82 84 86 89 90 97 101 103 108 109 106

GFSCGP_250_spd_009.txt.gz
Wind_Speed
38 37 40 45 47 44 40 36 31 35 37 32 34 33 34 41 42 48 48 47 44 44 47 45 48 46 42 40 38 39 40 39 40 41 41 42 43 43 46 47 50 55 60 60
45 41 51 45 48 48 40 39 45 41 46 42 32 27 32 37 46 50 50 49 44 46 52 52 50 48 49 46 45 41 41 42 42 41 42 43 46 48 49 50 51 50 51 55
52 53 56 52 55 62 58 63 64 50 50 45 37 20 30 36 45 52 48 48 49 51 54 55 53 49 47 48 51 54 52 47 46 47 48 48 50 53 53 54 52 50 52 52
60 63 61 60 64 68 65 73 69 59 59 52 47 37 36 37 45 50 53 57 58 65 65 64 62 62 58 61 59 59 61 63 60 54 55 53 51 52 58 59 58 56 56 58
68 68 68 69 74 77 75 80 81 84 75 62 59 56 47 51 48 48 55 62 71 76 73 69 72 74 72 73 78 62 57 60 65 64 64 60 55 55 60 60 61 62 62 63
75 74 70 77 78 86 84 80 79 84 85 84 72 72 48 56 66 73 73 79 76 77 80 77 80 82 87 89 84 82 75 71 65 69 69 68 71 62 57 61 61 68 65 66
72 75 72 80 88 89 88 93 94 90 88 85 87 83 70 79 77 79 86 86 91 97 99 94 98 91 89 91 91 86 86 81 78 81 70 75 79 77 72 70 67 66 65 65
90 90 88 103 86 98 93 94 101 104 98 94 97 95 75 79 87 90 100 103 100 107 106 108 108 110 108 101 97 91 90 92 90 89 91 79 82 81 82 77 78 75 78 77
99 86 88 92 99 96 96 100 105 109 110 115 106 102 93 84 94 106 109 109 114 116 114 120 119 111 107 102 99 103 96 95 99 97 96 102 91 86 90 90 90 87 86 86
106 107 94 103 101 100 108 108 110 112 122 122 124 114 116 99 107 116 119 119 120 120 121 118 116 113 122 104 100 106 106 98 102 105 102 103 107 97 92 95 98 97 97 96
113 117 109 114 115 120 122 126 124 126 130 128 130 132 119 120 104 113 113 117 118 120 118 118 116 116 116 112 103 107 109 107 105 108 109 108 111 107 107 99 101 107 103 103
118 125 131 126 123 128 126 131 134 140 136 135 134 137 131 131 119 115 122 122 112 115 119 116 118 117 119 117 105 106 115 110 111 114 110 110 110 108 104 103 101 107 112 112
130 136 137 138 136 136 142 142 145 140 137 144 146 145 134 140 139 136 132 127 122 120 120 121 120 122 123 118 119 120 120 118 115 120 114 114 114 115 111 110 108 105 111 113
156 158 158 151 153 150 149 154 155 159 155 148 148 140 148 152 139 134 130 131 127 119 122 123 127 131 128 121 126 132 133 128 129 123 125 127 125 125 128 116 121 120 116 117
158 162 164 164 161 154 152 141 131 125 125 132 130 133 128 123 117 115 115 118 116 114 107 111 116 104 107 104 95 96 104 123 124 128 128 132 132 135 133 135 127 123 117 117
144 144 145 145 140 136 127 117 112 118 119 123 124 121 120 117 111 107 103 103 109 109 108 103 98 106 103 99 101 104 101 100 108 109 113 116 122 127 126 123 124 121 117 111
131 130 128 125 131 136 124 112 116 116 115 117 117 119 116 113 111 104 98 96 96 97 99 101 103 103 103 103 104 103 101 103 107 108 109 109 108 106 109 111 114 114 111 108
128 126 124 123 125 123 111 108 113 115 111 111 115 115 114 111 107 104 102 101 99 97 96 96 96 98 99 101 102 102 103 104 106 108 109 110 113 113 112 109 108 109 110 113
123 118 118 118 113 110 100 106 106 106 105 107 108 108 107 106 101 100 102 100 99 99 98 97 98 97 97 98 101 99 101 102 104 104 103 105 108 111 113 115 118 118 116 113
105 105 111 109 106 104 98 100 101 104 103 105 105 103 103 103 101 98 104 102 100 100 101 102 101 99 99 100 103 101 101 102 104 104 103 105 106 111 115 117 114 117 121 119
99 103 105 106 110 104 102 102 102 104 104 101 102 101 102 103 102 100 101 102 104 103 103 103 101 99 100 102 103 102 104 106 104 103 104 106 106 107 112 115 118 116 116 120
93 95 98 102 102 103 101 102 100 101 101 100 99 99 100 100 99 99 97 97 99 99 100 101 100 98 98 100 100 99 99 100 98 99 99 99 103 105 108 113 115 120 118 117
87 87 91 90 95 97 95 95 96 96 93 93 95 93 94 92 91 91 89 89 90 92 93 96 98 96 96 99 100 96 98 98 96 95 94 95 95 96 100 107 111 115 121 122
82 84 84 84 87 89 88 90 91 91 91 90 90 89 89 89 90 89 89 89 91 93 94 95 93 93 92 96 96 97 95 96 95 94 94 94 92 93 95 98 102 107 111 117
82 84 85 78 84 92 84 87 89 88 90 89 88 89 89 90 89 91 91 93 91 89 89 89 88 87 87 88 91 92 91 88 85 87 89 89 90 91 92 95 97 98 102 111
83 82 84 76 86 92 80 88 89 88 87 88 88 90 92 92 90 88 85 84 83 82 83 82 83 82 82 83 83 85 85 83 81 81 82 81 83 85 85 88 93 95 97 103

GFSCGP_250_spd_012.txt.gz
Wind_Speed
45 43 48 51 49 45 42 40 34 36 37 27 29 28 32 35 37 39 44 45 47 48 49 47 42 40 41 41 37 37 39 37 38 38 41 45 46 46 48 47 45 46 44 41
46 40 52 51 48 45 42 43 41 40 42 35 38 40 39 35 40 48 44 48 49 51 48 46 44 42 41 39 42 40 37 38 39 41 42 45 48 50 50 52 52 51 48 48
59 58 58 54 54 55 54 54 53 51 51 48 50 52 46 48 53 53 55 58 54 53 51 49 49 48 48 49 46 48 47 42 49 47 50 52 53 55 56 56 58 59 57 57
59 62 60 66 66 66 62 62 59 61 62 59 53 53 60 61 63 62 61 59 54 52 55 55 53 56 56 59 62 64 62 63 60 58 55 49 54 55 57 58 60 62 64 64
70 65 63 64 66 68 70 71 69 68 66 68 61 61 54 69 70 73 66 62 64 69 70 72 72 64 67 65 71 71 73 73 71 69 69 66 67 60 62 63 64 65 64 62
72 71 67 68 69 74 73 73 77 79 70 67 70 77 74 79 73 77 77 76 77 79 79 75 75 77 76 75 83 84 83 82 83 80 79 81 77 70 72 71 70 69 72 73
80 73 79 79 77 80 86 82 76 74 85 81 87 83 77 83 84 78 82 89 89 88 90 91 91 90 86 84 83 86 87 89 89 88 88 89 89 86 84 81 81 81 78 76
81 87 77 80 90 101 91 93 93 99 96 89 89 82 75 90 89 90 92 93 97 101 100 100 100 106 104 100 97 97 94 95 94 93 93 92 92 94 92 94 91 88 92 87
95 84 92 87 94 93 100 100 102 109 103 104 93 87 87 95 94 98 103 101 101 105 109 115 115 111 111 107 110 107 111 103 104 103 103 105 108 108 105 102 104 101 99 100
105 106 94 99 99 100 105 106 112 107 117 117 110 103 95 96 106 107 112 114 112 117 119 117 122 115 116 121 121 117 115 118 112 113 114 117 117 108 112 114 111 111 108 106
113 119 103 111 109 114 112 114 116 118 120 121 122 121 106 110 110 116 123 125 124 124 122 120 124 129 130 124 131 127 120 119 122 128 124 117 118 116 114 113 114 117 118 117
122 127 126 118 120 119 115 116 116 120 121 122 130 127 129 129 136 136 132 127 125 123 123 126 127 127 133 130 132 131 127 120 126 135 135 129 122 122 117 112 109 116 119 119
120 124 129 128 120 116 121 120 122 127 133 136 138 141 142 146 148 147 147 133 127 129 129 130 132 129 132 135 133 136 131 134 135 136 139 134 124 123 116 111 112 111 113 120
123 121 121 127 123 123 126 133 135 146 147 149 153 145 139 143 147 140 136 132 120 105 107 115 127 134 134 136 140 142 143 144 137 132 132 130 132 123 120 118 117 119 116 117
132 138 140 140 148 151 157 154 151 141 132 134 130 131 120 128 129 124 124 123 122 120 112 103 99 103 109 115 122 127 132 132 129 129 131 135 131 128 133 130 129 123 124 128
127 128 129 127 128 129 131 121 120 131 130 126 125 118 120 114 117 119 118 119 118 116 112 108 104 99 99 100 104 109 114 118 119 123 127 126 122 121 124 127 121 117 117 112
124 127 127 124 125 122 113 109 119 121 120 123 121 121 118 114 114 113 112 111 110 109 109 108 106 103 99 98 98 100 104 113 117 117 120 120 122 121 123 123 118 117 121 119
117 121 125 121 123 120 109 112 116 115 109 110 114 112 111 112 110 109 111 107 106 105 105 104 104 102 101 99 98 98 101 103 107 110 114 120 124 125 126 127 126 121 119 119
119 121 121 118 118 114 103 106 105 106 100 105 106 107 108 108 105 104 111 108 106 105 103 103 103 101 101 102 100 97 98 101 106 110 110 112 114 119 125 127 128 129 128 123
112 114 114 110 111 108 100 103 102 106 103 105 105 105 106 106 105 104 110 109 107 106 106 105 104 103 104 104 104 101 100 100 103 105 106 108 111 114 115 118 120 123 126 127
101 103 104 108 110 105 101 101 100 102 101 100 100 101 101 101 100 98 100 101 104 102 103 102 100 100 101 102 101 100 101 103 102 102 103 106 107 109 112 114 116 118 120 122
98 98 98 100 101 98 97 94 94 95 92 92 92 93 93 93 93 95 93 95 97 97 97 96 93 93 95 98 97 95 96 97 96 97 98 101 104 106 107 106 108 115 117 118
93 93 93 93 94 94 92 93 90 90 84 87 88 87 87 86 87 87 88 90 91 93 93 93 92 91 93 96 95 93 95 95 95 95 96 98 100 101 101 100 99 100 106 112
90 92 92 93 91 90 90 91 88 87 87 87 87 86 87 86 86 86 88 88 89 91 93 93 92 92 92 96 96 96 95 94 92 93 95 95 94 97 99 97 96 97 98 100
89 89 91 89 94 90 88 89 88 87 88 86 85 86 86 85 86 85 87 89 91 92 92 91 90 90 89 89 89 91 88 84 82 83 85 87 87 89 90 91 91 89 90 92
88 86 88 84 90 89 80 89 87 85 85 85 83 83 84 83 83 84 86 87 88 88 87 85 84 82 82 83 84 85 84 83 83 82 81 81 81 83 83 84 85 85 85 86

GFSCGP_250_spd_015.txt.gz
Wind_Speed
52 47 47 54 54 51 49 45 45 48 49 47 45 39 38 40 42 46 52 51 50 46 43 41 40 37 41 45 44 45 38 37 37 35 33 33 34 37 38 42 44 45 45 47
50 49 52 56 57 53 48 45 46 46 50 47 48 44 46 47 50 56 54 54 54 51 55 49 52 46 42 43 45 44 44 40 42 38 43 43 43 45 44 45 49 52 50 50
56 54 53 56 55 53 52 52 53 51 50 50 53 50 51 53 59 60 60 57 58 61 63 65 60 54 48 48 48 48 49 50 51 53 52 51 56 64 56 51 53 51 55 55
59 64 62 65 69 66 60 65 59 57 57 59 57 54 58 62 65 66 63 62 63 68 66 65 68 70 63 62 63 51 52 54 56 56 59 62 62 62 64 64 66 62 59 59
66 61 63 65 69 70 70 69 70 65 63 60 62 61 64 67 68 73 70 70 75 69 68 71 72 73 75 71 69 72 68 67 69 66 67 68 72 71 73 73 74 74 72 74
76 78 82 76 78 82 87 76 75 69 74 66 69 70 64 68 72 73 72 78 86 79 82 89 88 83 80 81 83 80 82 81 84 84 80 88 78 83 84 81 81 83 82 80
88 82 89 93 84 84 91 94 93 90 83 69 82 74 74 83 76 75 80 83 85 86 89 91 92 90 84 87 83 83 90 92 92 93 93 92 91 92 88 87 94 85 87 89
94 90 94 95 95 97 93 97 99 103 95 94 90 83 80 88 90 94 93 91 89 87 89 89 95 93 93 92 92 95 92 94 96 98 99 98 100 100 99 99 96 94 92 96
102 97 106 101 99 104 106 98 104 107 105 109 95 91 87 96 101 97 99 105 100 99 100 102 95 104 104 107 105 103 103 102 101 103 106 107 106 106 108 108 107 107 105 102
119 119 112 109 112 107 111 104 103 109 117 115 108 103 101 102 108 108 109 109 109 111 109 112 112 109 111 113 114 114 117 116 114 115 117 117 117 118 117 115 113 112 111 112
128 129 107 116 107 102 106 109 111 113 116 123 122 114 101 109 115 116 116 118 119 117 117 120 121 118 119 120 123 128 125 126 126 128 130 129 126 126 129 127 124 127 126 124
125 122 116 108 107 110 111 107 113 119 121 123 128 126 116 118 120 122 121 123 121 123 122 122 126 125 123 128 128 132 136 136 140 143 141 136 136 133 133 137 137 136 136 133
116 118 121 113 107 113 117 121 125 120 126 128 134 133 127 129 130 130 129 133 131 131 134 135 135 137 137 140 143 145 150 152 153 151 147 147 139 141 137 139 141 139 141 139
122 119 119 120 115 113 118 118 124 129 133 134 138 142 141 140 145 146 144 145 142 138 141 143 140 134 131 127 130 130 128 138 145 151 148 145 145 146 146 143 142 142 142 137
122 119 117 115 114 116 117 120 119 122 130 138 137 140 130 135 146 135 131 128 123 115 110 109 113 113 109 108 111 112 112 115 118 123 127 129 130 134 139 143 148 146 141 140
119 119 118 112 116 119 119 109 112 120 122 122 127 124 123 122 122 122 120 121 123 120 117 115 112 112 111 111 109 109 111 112 110 114 119 123 126 128 129 132 135 137 141 141
119 121 122 113 118 120 112 112 120 119 119 123 124 122 119 123 120 118 118 120 119 118 117 115 111 110 110 110 108 104 104 105 106 107 111 116 120 123 126 129 131 132 132 133
117 119 122 118 119 120 111 114 120 118 114 116 118 116 114 114 114 111 115 113 110 111 111 110 110 110 110 109 106 103 100 99 100 101 103 108 114 117 119 122 126 129 131 130
117 117 121 120 118 117 107 116 114 115 106 110 108 108 107 106 106 107 113 109 110 111 109 109 107 107 107 108 106 102 101 99 99 98 99 103 106 108 111 115 120 123 125 125
117 118 119 117 117 112 105 108 107 111 103 106 106 107 104 101 98 98 104 104 103 103 104 103 101 100 101 102 100 99 99 100 98 96 97 99 103 105 106 107 109 113 117 119
107 108 108 107 109 105 101 103 106 105 103 100 100 99 97 95 94 93 96 97 98 98 98 96 93 93 95 95 94 94 95 95 95 94 94 95 98 99 101 103 106 109 112 114
101 101 102 104 106 107 102 101 101 101 96 95 96 94 93 91 90 90 90 91 93 93 92 92 91 93 95 95 92 90 91 90 89 88 90 91 92 94 95 97 97 99 101 103
102 101 101 100 102 100 96 95 97 97 92 92 93 91 90 88 88 88 88 89 90 90 90 90 91 91 95 95 92 88 89 87 87 90 90 90 89 90 91 91 92 93 96 96
98 95 98 98 97 98 95 97 93 92 90 89 89 88 88 86 86 86 86 86 87 87 87 87 89 89 91 91 91 89 87 88 89 90 91 90 89 90 90 89 89 90 92 93
97 98 100 92 95 95 92 93 92 91 89 87 86 83 82 81 82 82 83 82 82 82 82 83 85 86 86 87 89 88 88 87 88 88 86 84 82 82 82 82 83 83 83 84
100 97 96 91 92 88 83 91 92 89 85 83 83 81 80 79 79 77 77 76 76 79 80 83 85 85 83 83 84 82 81 80 81 82 81 78 77 77 77 77 79 79 78 79

GFSCGP_250_spd_021.txt.gz
Wind_Speed
43 43 44 46 46 46 47 45 44 47 46 48 50 49 50 53 55 58 55 59 64 64 60 57 55 57 58 55 51 49 49 50 53 52 50 49 52 53 52 52 52 50 52 52
46 48 50 51 52 49 47 47 48 45 46 43 42 44 47 52 52 56 54 56 59 64 66 68 65 63 63 63 62 61 61 59 58 57 58 59 55 54 55 56 55 49 51 53
41 43 50 52 49 48 42 42 40 46 48 48 40 37 44 52 48 49 56 61 65 63 62 68 69 72 71 70 71 72 71 70 69 67 64 62 64 63 60 59 59 55 55 56
45 49 49 45 49 50 56 58 59 52 50 50 54 45 46 56 57 59 58 69 67 65 68 72 72 77 76 77 79 80 80 79 79 76 75 73 70 68 69 68 65 65 66 67
50 50 53 56 54 54 54 57 58 61 61 56 57 59 56 66 71 71 71 75 79 81 86 80 84 76 75 80 81 79 80 83 83 84 82 83 81 77 75 77 75 73 75 75
57 57 60 62 65 67 71 66 64 61 62 62 70 74 66 72 78 83 87 89 93 96 96 88 85 82 87 84 84 87 86 87 89 87 86 86 83 84 83 81 83 84 87 85
65 68 68 66 72 72 69 70 73 73 73 74 78 76 77 83 90 94 94 94 99 108 104 98 96 92 90 94 94 91 94 95 96 98 95 94 94 94 94 94 96 98 97 98
75 77 79 80 81 79 80 83 83 85 84 82 87 91 94 98 101 104 107 107 108 102 105 105 99 102 98 102 101 101 99 103 100 102 106 106 107 101 101 102 101 102 103 105
79 81 85 86 84 83 85 92 97 96 98 100 91 94 97 101 105 108 107 111 111 103 107 107 100 104 107 109 113 110 107 109 109 112 113 113 111 115 114 111 109 109 109 108
82 83 82 84 88 94 101 102 102 103 105 106 105 105 103 106 112 111 110 111 110 108 111 106 103 109 113 117 120 122 120 116 117 120 119 123 124 124 120 120 122 122 119 116
98 97 96 97 102 109 110 109 111 113 112 114 120 108 103 108 111 113 113 114 114 113 111 111 113 111 113 117 123 126 132 129 128 127 129 132 132 130 129 131 129 128 129 127
105 108 105 111 113 117 116 116 117 119 119 124 126 114 112 115 115 116 119 119 114 110 109 109 110 113 118 119 119 122 126 128 129 131 134 137 136 139 136 137 140 139 141 139
111 114 117 117 121 126 127 125 126 128 129 128 128 121 119 119 123 127 126 122 115 110 108 107 109 111 114 116 118 118 117 119 123 125 127 130 133 135 140 141 143 144 146 147
122 122 124 123 130 130 129 125 126 133 132 129 125 125 120 126 134 135 129 124 120 115 112 109 109 110 111 112 113 115 116 117 117 118 119 121 122 123 128 129 133 137 138 141
129 129 133 131 136 136 134 130 128 130 131 133 126 131 130 138 135 134 128 125 122 118 114 111 109 109 109 109 110 112 112 115 115 115 117 118 119 120 122 125 125 125 126 127
135 141 138 138 140 140 138 130 129 130 128 134 139 141 143 137 131 127 122 119 116 113 111 109 107 106 105 106 108 109 108 108 109 111 113 115 116 118 121 123 123 123 123 123
141 143 146 143 141 141 138 128 135 135 136 142 142 137 135 133 126 119 117 114 111 109 108 107 104 100 97 97 97 99 100 99 99 100 103 106 107 107 109 111 113 115 117 118
145 148 146 143 147 146 138 137 139 137 133 132 133 132 125 119 115 111 109 105 104 102 100 99 99 99 98 95 94 94 95 96 97 97 98 98 99 101 102 104 106 108 109 112
146 143 149 149 148 149 137 134 134 128 119 116 121 115 110 104 100 101 103 98 97 96 97 97 99 99 96 92 89 87 87 87 88 89 90 91 91 91 92 93 95 98 98 100
148 149 151 148 144 136 130 124 120 119 109 111 106 105 104 99 96 96 101 98 97 96 95 96 95 95 94 92 90 90 90 90 89 89 90 90 90 90 92 93 92 92 92 92
145 147 144 143 139 128 123 118 114 112 106 99 98 97 96 95 95 94 96 98 98 96 96 95 94 93 91 88 86 85 86 86 86 88 89 89 90 91 91 92 92 92 93 94
137 139 133 126 119 113 111 111 110 107 98 96 92 93 95 93 94 96 95 93 94 94 92 91 90 89 88 86 85 86 86 84 83 82 82 83 84 85 86 87 89 90 92 93
133 122 113 108 108 106 107 106 102 99 99 94 91 91 92 91 94 96 95 91 87 86 85 86 87 87 85 83 83 83 82 81 81 81 82 82 80 81 81 80 81 83 86 86
109 106 106 105 103 104 109 106 100 99 94 92 94 93 90 92 92 90 88 85 82 81 82 82 81 81 80 80 80 80 82 83 82 83 84 82 81 80 79 79 79 79 81 83
100 102 101 102 101 107 103 103 102 98 99 97 95 96 94 92 89 87 85 83 82 80 79 79 80 81 80 80 81 80 80 79 79 80 80 79 79 78 78 78 77 76 76 77
101 100 103 101 103 104 101 96 94 97 97 98 97 94 93 92 89 88 87 84 83 82 81 79 77 76 74 75 77 75 76 76 75 77 76 76 75 76 75 75 76 76 72 75

GFSCGP_250_spd_024.txt.gz
Wind_Speed
43 45 46 46 45 44 44 44 44 46 46 43 42 35 39 42 41 42 47 49 49 50 52 52 51 51 52 55 58 56 59 61 61 60 59 58 57 58 59 60 61 60 61 60
47 48 51 48 47 45 46 47 49 49 50 43 43 41 42 44 46 46 49 53 53 53 53 53 56 57 55 58 58 60 61 65 68 69 67 66 64 63 65 64 64 64 65 64
52 53 51 49 43 43 42 43 44 49 49 47 44 48 50 51 49 51 52 51 53 56 56 60 56 57 62 59 61 64 62 68 71 74 77 77 75 73 71 72 73 72 70 68
45 49 49 47 47 44 47 53 49 50 52 54 57 54 52 57 56 58 58 60 62 64 66 67 67 69 73 76 78 75 75 76 77 80 81 83 87 86 84 83 81 80 80 78
45 46 48 51 53 52 53 51 52 52 56 55 56 59 55 63 59 61 64 66 69 71 72 76 76 77 77 79 81 82 82 85 87 82 85 86 87 90 93 94 93 91 90 88
54 55 56 59 60 59 59 63 65 62 62 58 60 62 57 62 67 70 71 73 76 78 78 79 83 84 82 82 86 88 92 90 94 91 92 96 96 94 95 95 95 98 98 98
59 57 55 51 56 59 61 61 67 69 71 66 66 64 65 70 73 74 79 84 82 81 84 84 84 88 90 90 93 94 100 98 94 102 98 97 103 105 102 102 104 102 100 100
62 62 66 66 65 70 69 72 75 75 71 70 73 67 68 74 77 83 85 84 87 89 90 91 94 95 94 95 99 101 104 107 103 100 111 110 109 109 112 112 111 112 113 112
69 65 68 71 76 78 78 82 82 86 84 78 73 76 79 83 86 93 96 97 99 98 98 98 99 98 98 101 103 103 107 111 113 111 114 118 112 117 118 120 120 120 121 119
80 73 77 76 81 84 89 90 91 96 98 94 87 91 98 102 108 112 111 111 108 105 106 105 103 101 102 104 105 107 109 111 114 116 117 117 119 119 126 126 129 131 128 129
85 80 80 85 90 92 93 98 98 104 104 111 109 104 110 115 120 120 119 118 115 111 111 108 106 107 109 111 113 116 120 121 116 113 114 117 116 118 123 130 134 135 137 137
89 90 89 92 96 102 104 103 105 109 113 117 122 114 120 126 125 123 123 123 120 120 118 115 115 115 118 122 125 126 124 120 117 116 115 115 116 116 118 122 128 132 135 141
96 98 96 100 105 109 109 110 113 117 121 124 133 131 133 129 131 135 129 128 125 127 126 125 125 127 130 130 128 125 121 117 116 116 114 114 116 118 119 120 120 123 127 132
101 105 106 108 113 116 119 116 120 124 128 135 136 139 129 133 136 131 132 131 133 134 133 132 129 129 125 121 121 119 115 111 109 109 109 110 110 112 116 119 120 120 121 122
109 112 114 117 120 120 121 121 127 134 139 145 134 137 130 132 132 134 137 138 139 137 133 131 128 123 116 111 108 106 104 102 101 100 101 102 104 106 110 113 115 117 118 119
117 122 124 125 129 131 129 125 132 139 146 150 144 139 139 138 140 141 142 142 134 131 125 121 118 113 107 103 99 97 96 95 94 94 94 94 95 97 99 101 104 107 111 113
127 132 130 131 133 136 130 134 143 147 149 146 143 142 143 143 142 138 136 128 123 117 113 110 107 104 101 99 97 96 95 95 95 96 96 96 96 96 97 97 98 101 103 105
131 134 139 141 140 141 136 140 147 151 148 146 147 147 148 138 135 130 126 114 110 108 106 103 101 97 95 94 93 93 92 92 93 93 93 92 91 91 92 92 94 95 97 99
144 142 144 148 148 148 145 149 151 148 146 146 147 143 135 129 117 110 108 103 102 100 101 99 98 96 95 94 92 90 88 87 87 89 90 90 90 90 90 90 91 93 93 94
151 154 156 157 157 156 141 144 145 151 144 138 130 127 119 111 106 103 101 102 100 100 100 99 97 96 93 93 91 89 88 88 89 91 91 90 89 89 89 90 92 92 91 92
152 156 161 160 159 154 147 147 150 141 136 125 119 111 108 105 103 101 101 102 103 102 101 99 96 95 94 94 92 90 88 87 87 88 89 89 89 89 89 89 91 89 89 87
158 158 156 158 156 155 149 151 144 138 124 116 108 104 102 101 101 102 102 103 103 102 100 98 97 96 94 92 90 88 86 85 85 84 83 83 83 83 83 85 83 83 81 81
161 159 159 155 156 153 141 137 132 121 118 112 107 102 103 102 100 102 103 100 99 98 95 94 93 91 89 87 87 86 85 84 84 85 84 84 84 83 84 82 81 81 81 81
158 151 146 147 142 133 129 122 119 117 114 111 108 104 103 103 100 98 97 96 96 93 90 89 87 86 85 84 84 83 83 84 85 84 83 82 81 80 81 77 76 75 75 75
147 137 134 134 128 123 119 119 118 116 114 112 108 104 101 100 96 97 95 93 92 91 88 86 83 82 82 82 82 82 82 81 80 80 79 78 78 78 77 75 76 73 73 72
135 125 123 121 120 121 117 115 114 113 111 109 108 105 102 100 98 95 93 92 90 88 86 84 84 83 81 80 80 77 77 77 78 77 76 75 75 75 73 73 75 72 70 70

GFSCGP_250_spd_027.txt.gz
Wind_Speed
42 42 45 45 44 44 45 44 44 47 49 46 45 44 48 46 45 46 45 45 45 45 48 46 47 50 50 50 49 51 54 55 54 55 56 60 64 65 66 66 66 67 66 67
47 46 50 49 50 49 48 47 49 48 48 48 52 51 52 52 51 49 51 54 55 56 57 56 54 52 52 52 55 57 56 57 56 56 59 60 64 68 72 73 73 74 74 75
47 47 49 51 50 48 48 47 48 43 50 51 47 47 52 55 58 58 59 61 63 65 64 64 61 60 59 60 61 65 67 65 64 66 68 71 70 72 75 75 75 76 82 83
44 50 49 48 46 46 45 43 46 50 50 51 54 54 55 58 59 65 67 68 69 69 73 73 69 68 67 70 71 72 74 76 76 76 75 76 76 80 81 82 83 83 84 86
44 46 48 48 51 47 47 53 54 56 56 52 49 55 54 57 61 64 65 67 70 70 71 74 77 76 77 79 80 81 81 81 85 89 88 87 86 84 86 87 88 92 91 92
51 50 53 52 50 54 59 52 54 51 48 46 50 51 48 51 55 63 67 71 72 77 79 80 82 84 87 83 85 84 89 87 84 85 87 88 91 93 92 94 97 100 100 98
57 60 62 57 54 58 61 62 60 58 62 60 58 58 58 62 62 66 68 75 77 81 82 85 84 90 89 88 93 100 93 93 97 100 97 97 98 94 96 102 102 106 107 108
60 62 66 67 67 65 57 64 70 74 79 70 64 64 65 70 76 78 76 74 75 79 81 86 94 93 90 97 103 98 99 101 105 105 105 104 104 103 104 105 106 108 113 116
64 64 70 74 76 75 74 80 83 87 82 71 70 65 71 78 84 88 86 82 83 86 91 93 92 95 103 106 102 103 102 107 112 110 109 109 109 108 107 109 112 111 113 117
71 74 73 75 73 78 84 84 85 87 82 79 75 73 77 84 95 100 98 94 98 101 102 105 113 116 113 109 105 104 107 108 109 109 109 110 112 114 114 115 117 118 118 121
88 90 83 71 70 74 81 84 89 92 88 93 89 78 87 95 101 103 101 105 109 113 116 123 128 124 123 120 115 114 114 115 116 115 114 115 115 116 118 120 123 124 126 127
89 86 89 90 90 88 83 86 90 92 87 92 99 84 103 110 112 114 115 115 120 122 126 130 133 132 130 125 121 121 122 124 122 122 121 121 118 116 115 115 115 117 119 120
96 98 93 94 94 99 100 97 100 100 99 100 110 105 112 114 118 122 126 130 130 134 132 133 134 132 134 133 130 130 127 123 120 117 116 114 112 109 107 108 109 109 109 111
94 94 92 95 105 96 99 100 101 105 104 109 110 118 123 127 132 132 133 137 138 139 138 134 136 135 135 132 128 126 120 114 110 107 104 102 101 98 99 99 99 101 101 102
106 98 99 101 95 107 107 101 103 106 107 117 121 125 130 137 139 139 139 142 144 141 136 137 141 141 135 127 120 111 106 102 98 96 94 93 92 92 91 92 94 95 96 97
104 108 107 107 107 109 111 108 110 112 116 123 128 130 139 143 147 146 148 150 145 140 139 140 143 136 127 118 110 106 103 98 95 93 91 91 91 90 89 89 90 90 91 93
112 113 115 116 117 120 116 111 119 123 123 130 138 141 144 146 148 152 151 145 146 144 144 143 136 123 114 108 105 101 100 98 96 94 94 94 93 93 92 92 92 91 90 90
119 119 122 122 124 127 120 123 124 128 130 138 145 148 153 154 147 148 150 150 146 144 140 127 117 112 108 104 101 100 99 97 96 95 95 93 93 93 93 92 91 90 89 89
122 126 129 131 132 127 126 131 131 136 138 143 152 158 159 154 151 151 152 147 141 133 125 118 112 108 104 104 102 101 100 98 97 95 94 94 92 91 91 90 89 88 88 89
130 132 133 134 137 139 133 138 145 147 148 154 158 159 158 162 158 152 147 135 129 121 115 113 109 105 104 104 103 102 101 98 96 94 93 92 91 90 89 88 87 85 84 84
136 138 140 142 144 143 139 147 148 155 158 159 163 167 164 155 156 136 133 126 118 114 112 110 110 109 106 104 102 100 98 96 94 93 93 91 90 88 86 86 85 84 83 83
142 146 146 151 152 148 151 156 160 162 163 165 161 160 157 157 141 130 120 117 117 116 112 111 110 107 105 102 100 98 96 95 94 92 90 88 86 85 84 83 82 81 80 82
148 153 156 156 159 159 164 166 166 165 168 165 162 159 156 136 124 119 118 116 115 115 111 108 106 103 100 99 97 95 92 90 89 88 86 85 84 83 83 82 79 76 75 74
157 157 157 161 163 167 170 173 173 171 164 164 152 137 132 122 118 117 116 114 112 109 104 102 100 98 95 93 91 89 87 86 85 84 83 83 82 81 78 76 74 74 73 72
160 161 164 164 166 175 176 175 170 165 160 148 139 129 122 120 115 114 109 106 105 102 100 98 95 94 91 89 86 85 84 82 81 81 80 79 77 75 76 76 76 74 71 70
161 161 164 170 172 173 166 164 165 156 145 129 127 123 119 118 115 110 105 103 102 99 96 92 91 89 88 86 86 84 82 81 79 78 77 75 76 74 74 74 76 76 70 71

GFSCGP_250_spd_030.txt.gz
Wind_Speed
40 39 43 39 39 39 39 39 41 46 45 41 43 42 45 47 47 49 49 49 48 49 49 49 51 53 56 58 57 56 58 59 59 59 59 59 60 61 62 63 61 61 64 70
43 42 43 41 42 43 44 42 45 45 46 44 43 41 44 47 49 47 49 50 52 54 56 56 58 59 57 60 66 67 67 66 67 67 65 65 68 68 68 69 70 68 69 69
43 43 46 46 44 44 41 45 46 43 45 41 41 40 46 49 51 53 57 59 61 63 63 65 69 68 68 71 71 70 75 74 74 74 76 77 77 78 78 78 77 76 78 80
45 49 50 48 47 46 42 47 43 44 44 42 42 43 49 55 57 56 58 60 62 62 65 70 72 73 77 73 79 78 78 81 84 83 82 83 87 88 87 88 89 90 88 89
52 51 54 51 49 45 42 46 49 49 47 47 50 51 44 52 58 62 66 66 63 60 60 64 62 61 67 73 74 76 81 83 84 91 93 93 95 96 100 98 100 100 102 102
59 58 58 60 55 52 50 49 52 51 50 48 58 58 53 53 60 65 70 71 71 72 70 69 68 66 70 66 71 77 76 82 84 87 88 90 94 95 100 101 104 105 109 110
66 63 63 61 61 58 55 56 56 56 59 62 61 59 58 64 67 72 73 78 79 72 68 71 71 71 70 74 74 76 84 87 94 95 101 101 98 100 94 102 108 107 107 111
68 68 67 65 65 62 60 61 62 60 58 61 69 68 70 77 78 78 82 80 78 79 81 80 78 82 85 82 81 80 81 83 91 93 94 93 96 101 104 104 105 111 118 117
68 67 66 66 67 65 66 66 70 71 70 71 65 63 72 76 78 78 76 77 78 77 83 83 85 88 96 93 90 89 95 95 97 98 99 98 101 102 106 106 109 114 115 116
69 69 70 69 68 67 70 73 76 81 82 77 69 66 68 78 86 84 87 88 85 87 86 91 97 102 105 103 109 112 111 108 108 108 105 106 107 108 106 107 111 115 118 120
78 77 75 76 76 79 80 81 85 87 85 89 84 76 80 87 90 91 91 88 91 91 95 100 105 110 114 118 123 125 128 123 121 114 110 111 109 112 111 109 109 110 112 114
85 83 80 80 79 79 82 84 90 89 87 81 89 73 86 96 98 90 92 95 93 101 100 105 112 116 125 131 135 139 133 131 123 115 113 115 113 110 107 105 103 103 103 104
91 89 88 86 83 78 77 82 88 89 95 97 96 81 85 93 95 100 102 100 104 109 112 115 119 126 132 139 144 140 135 130 125 117 113 111 106 100 98 95 95 96 96 97
91 89 85 86 88 89 92 88 90 90 95 100 101 97 98 101 103 105 107 109 112 116 121 125 131 134 139 145 144 137 133 135 130 121 113 107 102 98 96 95 94 94 94 95
92 93 96 95 99 103 102 104 97 97 99 105 102 98 103 110 112 114 114 117 121 124 125 131 138 141 149 149 152 140 138 136 124 115 105 100 97 95 94 94 93 92 91 91
96 95 97 100 102 105 109 107 103 100 98 101 106 101 113 114 118 119 120 124 129 132 137 138 144 150 149 152 149 144 134 124 111 105 102 99 97 97 96 95 94 93 92 92
99 98 92 94 99 104 105 94 102 105 106 114 107 116 118 123 125 125 127 135 137 141 145 147 150 155 156 147 147 133 121 114 111 107 104 101 99 97 96 96 95 93 92 91
105 107 109 115 112 108 100 100 110 112 115 120 123 123 126 128 127 131 135 139 144 149 154 157 161 161 154 151 142 127 119 116 112 107 104 102 99 97 96 95 93 92 90 90
115 114 119 123 124 122 108 117 119 124 121 123 128 128 134 134 135 139 145 147 152 155 160 159 157 154 152 150 136 121 117 114 110 106 103 100 97 96 95 94 93 92 90 89
122 121 126 128 130 129 123 124 128 131 130 128 133 136 138 139 140 142 145 146 153 158 161 161 161 156 148 130 119 117 114 111 107 104 102 98 96 95 94 92 91 90 88 87
125 127 129 129 134 134 130 132 135 140 139 138 138 142 143 147 148 148 150 155 162 164 168 164 155 137 125 123 118 113 110 109 105 102 101 99 97 95 93 91 90 88 86 84
129 129 122 130 136 138 134 139 143 144 148 148 147 147 150 152 154 155 157 163 167 170 160 150 135 127 123 119 114 112 107 104 102 100 98 96 93 91 90 88 86 84 82 81
133 132 134 134 137 138 141 146 149 150 151 152 156 158 158 158 160 163 167 168 167 157 141 139 124 123 119 114 111 107 103 101 100 98 96 92 89 87 85 84 82 82 81 80
137 138 141 139 139 146 150 155 157 156 156 158 158 158 160 162 163 164 166 158 145 138 126 124 119 117 113 109 104 102 100 100 97 94 91 88 85 84 83 82 80 80 81 77
141 143 143 146 149 154 157 163 161 161 163 164 164 164 167 168 168 162 148 139 131 127 123 118 115 111 107 103 100 100 99 96 94 91 88 85 84 83 82 81 81 78 76 74
147 151 150 154 159 163 162 160 163 166 167 168 170 171 170 167 149 140 132 128 125 122 120 116 110 106 101 98 97 97 95 95 91 88 85 83 82 81 80 78 76 75 74 73

GFSCGP_250_spd_033.txt.gz
Wind_Speed
35 35 41 35 35 34 34 33 33 36 32 30 32 35 40 37 35 36 39 42 44 44 46 49 50 52 54 55 58 59 62 65 66 65 67 71 70 71 72 74 75 76 79 78
39 38 42 40 39 39 37 33 37 36 34 31 34 35 37 38 39 39 40 44 46 50 53 54 56 58 60 58 59 59 58 63 66 65 69 72 75 79 80 81 82 83 85 85
38 39 45 43 39 40 40 38 40 37 37 35 34 33 39 39 39 40 45 48 50 52 50 51 55 59 58 60 62 61 61 60 62 66 71 73 77 77 82 87 89 91 92 93
39 44 45 45 43 45 39 45 41 39 37 34 35 33 41 43 44 48 53 55 54 55 55 55 54 56 62 68 72 71 65 63 63 65 64 67 67 69 76 86 92 95 97 99
44 45 47 47 50 49 46 49 48 43 43 38 40 41 38 46 50 53 56 59 60 61 61 63 64 64 68 73 71 73 72 69 69 65 66 70 72 74 74 78 78 86 94 94
53 52 52 53 55 54 54 55 54 51 52 46 49 47 41 48 55 59 62 62 66 68 69 74 76 77 80 75 76 71 67 67 68 69 72 75 78 80 82 89 84 83 89 98
60 57 55 58 60 60 61 60 58 58 57 53 54 53 50 52 54 57 64 69 70 70 75 74 75 80 83 81 75 72 73 69 71 75 80 84 90 96 95 95 95 92 90 92
63 61 59 61 63 63 63 62 64 65 64 59 58 56 55 62 63 68 64 67 69 68 72 75 80 89 84 84 84 77 73 74 74 80 83 90 96 100 105 106 99 96 97 99
65 63 62 62 64 64 63 64 69 65 59 59 60 59 61 65 70 72 72 69 71 73 79 85 92 97 93 96 91 79 75 79 83 90 95 101 108 112 117 112 105 104 103 101
65 65 66 67 68 68 69 71 70 70 69 67 65 67 70 72 76 74 72 74 77 79 82 90 89 91 91 90 87 81 84 89 96 100 106 113 113 116 119 112 105 109 108 105
67 69 69 70 71 75 76 76 78 79 78 76 74 73 75 76 72 76 80 85 86 86 87 91 95 93 95 87 88 86 93 101 105 108 114 119 126 128 125 115 113 114 109 103
74 74 74 74 76 79 79 79 82 84 83 84 82 75 76 83 84 86 87 87 89 96 98 96 92 91 90 90 87 95 97 104 111 119 124 129 132 136 125 123 120 108 103 100
79 80 81 80 80 81 84 84 85 88 88 85 87 77 87 92 97 100 101 102 99 97 100 102 106 103 106 101 97 103 110 115 120 125 130 134 137 135 127 119 108 100 98 98
84 84 82 79 80 83 83 85 85 87 85 85 82 87 92 96 101 106 106 105 100 100 110 105 96 97 105 103 108 115 124 129 132 136 140 139 139 130 115 106 100 98 99 99
88 85 87 85 85 82 79 82 89 89 89 91 86 92 93 95 98 101 102 105 103 97 97 110 106 107 112 118 125 130 136 139 138 144 142 140 129 115 111 105 102 100 99 98
92 92 89 91 88 83 85 84 82 86 94 97 98 93 96 97 100 103 103 103 98 102 116 108 110 112 118 128 134 137 140 142 144 142 144 132 121 117 109 104 100 98 97 95
96 98 95 95 96 95 93 87 92 97 100 99 105 99 101 107 110 112 107 102 107 114 118 114 118 129 131 136 143 146 147 150 149 148 144 125 118 110 108 103 99 96 95 93
99 98 102 103 99 98 99 87 85 93 100 102 102 105 109 110 113 112 116 119 119 124 125 130 134 138 143 146 149 154 158 154 153 152 136 120 116 111 105 101 98 95 92 91
102 104 106 106 108 107 103 103 109 105 102 110 111 114 118 115 114 121 122 122 128 129 131 134 139 144 148 151 155 161 161 154 144 138 126 120 115 109 105 100 96 93 91 90
102 103 109 112 116 116 108 111 114 117 113 117 123 121 124 125 124 128 125 128 133 135 138 140 146 150 152 153 160 161 156 142 135 128 124 117 112 107 101 98 95 92 90 89
108 110 112 114 117 118 116 118 120 126 125 125 127 129 130 128 127 130 134 141 142 143 146 149 154 157 157 161 164 163 150 136 129 125 119 114 108 103 99 96 93 91 88 87
108 112 112 116 120 124 121 124 128 128 131 134 131 131 129 131 130 135 141 146 148 154 156 156 158 158 165 166 165 161 139 128 124 120 114 107 103 101 96 94 92 90 87 86
119 119 121 125 122 123 131 134 135 138 135 138 133 134 133 132 137 141 147 150 150 155 154 160 164 164 166 166 157 138 129 122 119 112 106 103 101 98 96 94 93 90 87 82
125 125 125 125 132 132 132 136 139 144 142 139 139 139 139 136 142 150 151 151 155 161 164 166 166 168 166 159 135 127 122 117 111 107 105 101 99 96 94 93 91 89 86 82
120 117 119 128 134 138 143 146 147 144 143 144 147 147 149 150 151 156 152 157 165 165 166 168 170 163 137 132 125 121 114 110 108 106 102 98 96 95 94 90 88 87 85 81
133 137 136 141 144 146 147 150 152 152 152 155 155 157 158 159 162 163 166 170 174 172 171 160 134 137 128 125 119 113 109 107 104 100 96 93 93 92 89 87 86 85 83 81

GFSCGP_250_spd_036.txt.gz
Wind_Speed
33 32 38 31 29 31 32 33 34 30 23 21 21 25 28 29 30 30 31 32 34 36 37 38 40 45 49 49 47 47 50 54 56 58 62 64 67 71 73 76 76 74 74 78
38 34 37 34 34 35 37 34 39 33 26 24 26 27 32 32 33 32 34 36 37 38 39 42 46 48 47 47 47 47 50 55 56 62 64 69 68 70 73 73 75 76 77 80
40 37 39 37 35 35 36 37 41 32 31 28 28 28 36 36 37 37 39 40 40 41 43 46 49 51 53 53 57 59 58 62 65 69 71 73 77 81 78 80 78 77 79 73
41 44 44 40 38 40 37 40 39 37 33 32 34 27 40 41 41 43 45 45 47 48 49 51 53 56 58 60 63 64 68 71 71 71 69 68 70 76 74 78 84 86 84 85
49 48 47 43 45 40 36 41 42 42 38 34 37 42 37 46 49 50 52 52 50 54 56 57 58 61 63 63 64 66 70 73 76 78 79 79 79 82 89 84 90 80 80 84
54 54 52 51 50 47 43 46 49 46 44 35 48 51 36 54 57 58 58 57 57 57 59 61 58 58 62 66 68 71 73 76 82 86 89 92 97 93 91 87 82 82 89 88
61 57 55 55 57 56 52 51 50 50 52 50 53 53 46 54 60 63 62 63 63 63 63 63 68 68 64 67 66 69 76 81 87 90 91 89 92 95 91 86 86 83 90 92
61 57 57 57 60 60 59 58 56 55 53 54 54 51 54 60 63 64 64 65 66 66 68 69 71 70 65 67 71 77 82 86 89 93 92 95 97 98 98 87 91 92 92 100
56 57 58 59 60 60 59 56 62 59 56 56 55 55 57 59 62 64 65 66 69 70 71 75 75 74 76 76 82 85 87 89 95 97 98 101 98 92 97 93 95 101 104 107
55 57 58 58 59 58 57 60 62 63 63 62 59 60 63 65 68 70 74 77 79 79 81 80 73 77 79 83 85 90 95 97 97 99 104 99 100 96 89 93 98 106 112 117
62 59 59 59 60 62 62 62 66 69 68 67 67 64 66 70 73 76 79 82 83 84 86 83 84 85 89 93 95 95 98 98 102 103 105 110 105 108 104 101 105 114 119 121
68 68 64 62 63 65 65 64 69 72 73 75 72 66 72 74 76 79 82 85 85 83 82 87 90 91 89 92 94 101 104 102 110 105 107 97 102 104 103 110 116 124 126 124
75 73 73 70 69 69 71 72 73 76 79 74 78 73 80 78 82 85 87 87 87 87 87 91 92 95 96 98 100 101 106 107 104 91 98 101 104 117 117 117 126 131 123 120
80 79 76 73 75 77 78 78 79 81 81 77 75 78 80 83 83 84 86 89 91 91 93 96 100 99 103 106 105 105 99 101 98 100 104 111 114 120 122 130 130 132 127 116
82 80 81 81 83 84 83 81 83 84 80 86 79 82 85 90 90 90 88 89 93 97 99 99 99 109 101 105 107 104 104 104 108 112 116 121 124 130 138 144 140 124 123 107
85 84 86 82 84 89 90 83 79 81 81 84 87 84 88 96 100 98 98 96 95 102 106 100 103 99 105 111 106 107 105 106 110 117 123 127 132 140 148 146 131 122 108 105
88 87 89 89 91 92 97 81 87 85 86 85 89 89 96 101 104 103 107 104 95 94 89 93 112 111 109 110 108 114 114 120 125 131 136 138 141 152 157 138 129 116 110 106
90 90 95 94 92 99 92 91 90 91 91 94 93 93 99 103 103 100 97 102 103 108 112 117 112 116 116 120 125 122 123 126 131 133 147 153 158 161 142 133 118 116 112 106
94 95 97 99 98 98 91 85 89 98 98 94 100 100 99 99 101 103 107 110 114 117 120 121 123 121 125 128 131 136 136 142 142 147 151 160 164 151 139 118 122 116 111 104
97 90 92 98 100 99 93 95 96 102 100 99 104 106 107 107 109 111 114 120 118 121 125 129 128 130 134 136 139 141 146 151 155 155 158 164 147 144 125 129 118 115 107 101
101 99 101 102 104 102 103 107 105 108 106 110 111 111 113 113 115 118 121 122 122 127 133 129 132 136 139 140 143 148 151 156 157 162 164 156 145 131 130 122 118 110 105 99
104 103 106 107 110 109 111 113 115 116 114 114 114 114 116 118 121 121 123 123 127 131 134 134 133 139 142 146 150 153 155 159 163 165 160 162 140 129 125 118 112 106 101 97
111 109 112 112 114 119 120 119 122 126 125 123 119 118 121 125 122 125 123 125 132 134 133 141 145 146 150 151 156 157 163 165 164 162 158 138 127 126 118 111 106 102 99 96
115 117 117 118 118 122 126 129 130 128 126 126 125 125 122 122 125 130 135 137 142 145 145 147 148 152 156 159 157 166 162 160 162 143 130 128 123 118 111 106 103 101 98 94
121 118 118 127 128 130 132 134 133 132 126 121 121 127 133 134 137 142 143 143 144 146 150 152 157 159 157 160 158 160 160 151 130 133 127 122 116 112 106 103 100 97 94 91
128 129 129 130 135 135 132 132 134 133 134 137 137 139 142 143 146 143 149 152 152 153 156 159 160 164 160 162 161 157 147 137 127 127 121 116 111 107 102 98 95 92 91 88

GFSCGP_250_spd_042.txt.gz
Wind_Speed
36 34 40 42 37 38 35 37 38 40 33 35 31 32 31 34 31 33 30 29 30 29 28 27 26 26 28 29 32 34 37 39 41 41 43 47 50 51 54 56 60 64 66 70
45 40 45 42 39 38 37 39 40 44 33 36 35 32 35 33 38 34 33 34 32 33 30 30 31 32 33 34 37 39 41 43 47 51 53 53 55 58 59 61 66 68 71 74
48 47 48 45 43 41 41 39 42 42 40 40 40 32 37 38 38 42 40 36 36 35 34 34 34 35 37 40 43 46 48 51 52 53 56 59 58 60 60 63 67 70 73 74
50 52 47 51 46 50 45 45 43 43 41 39 42 31 36 41 42 41 51 40 38 38 38 37 37 39 42 44 46 48 51 55 57 58 59 61 61 61 65 67 69 70 75 82
54 56 53 55 58 56 50 50 46 46 42 38 36 35 31 41 42 46 49 44 42 43 43 44 44 45 45 45 46 50 54 57 59 60 61 63 65 66 69 72 74 77 81 85
58 57 57 59 60 60 56 57 53 51 47 35 40 42 29 40 41 46 49 48 45 46 46 48 49 49 48 49 52 54 55 53 56 58 60 63 68 72 75 76 78 80 83 88
62 58 58 61 62 62 60 58 55 50 47 43 47 42 34 42 48 51 49 49 49 51 52 54 53 53 53 54 55 58 59 61 61 64 67 70 73 78 81 84 85 86 91 94
61 60 60 59 60 61 58 56 55 53 53 48 48 42 43 47 53 56 55 55 55 56 56 54 54 55 56 57 59 62 65 68 70 71 72 74 80 82 85 85 88 93 96 98
66 65 63 62 63 62 54 51 58 61 59 54 47 45 48 49 57 58 58 59 60 60 59 58 58 60 62 63 65 67 69 72 72 72 74 78 81 84 87 91 93 96 100 104
77 75 69 64 63 63 57 53 57 58 56 55 51 48 48 53 59 62 62 62 61 61 62 61 61 63 66 68 69 71 73 75 75 75 77 81 83 84 87 92 96 101 102 104
75 73 69 66 60 64 63 58 62 64 62 59 56 51 54 53 54 58 61 62 63 64 65 63 64 64 66 69 70 72 77 79 81 83 84 85 87 90 93 99 103 107 111 115
78 79 73 69 66 63 62 63 67 71 68 65 64 46 57 56 56 59 63 64 64 65 65 66 66 68 71 73 73 74 78 81 83 85 87 89 94 98 103 107 110 115 116 113
83 85 82 75 69 68 69 70 70 71 69 62 69 50 59 64 63 65 67 67 68 69 69 70 71 73 74 76 80 81 79 80 80 84 88 92 97 102 105 106 108 113 116 117
87 85 80 75 77 76 74 75 75 74 68 69 62 62 66 71 70 70 70 71 73 74 74 74 76 77 80 84 86 85 86 88 90 92 95 98 103 104 104 107 103 105 108 109
88 88 86 80 81 83 80 79 78 78 69 76 61 70 69 74 76 75 74 74 76 78 78 78 80 82 85 86 87 89 92 93 98 100 103 103 102 101 104 104 105 108 110 110
90 88 89 86 85 86 88 86 80 83 79 80 74 70 77 80 79 78 78 79 79 79 80 82 84 86 88 87 88 91 92 93 95 94 98 100 103 105 110 107 110 117 116 117
94 92 92 88 89 92 97 82 89 86 84 85 82 72 85 85 85 84 86 86 87 86 87 88 91 93 94 94 95 97 96 97 97 101 103 109 111 112 115 114 117 122 127 133
98 95 97 97 99 100 83 88 90 92 86 85 84 83 86 87 90 91 89 90 91 91 91 92 96 98 96 94 94 93 97 98 101 106 113 117 118 118 121 121 125 132 140 144
105 103 104 104 102 103 96 92 95 97 86 90 89 88 89 93 95 95 96 96 97 94 97 98 99 96 96 98 98 103 103 106 113 114 120 123 122 123 126 131 136 141 148 149
105 105 108 107 106 104 94 97 98 97 88 90 95 96 97 99 99 98 98 95 94 95 99 102 106 102 107 106 105 108 109 113 119 120 126 126 127 129 130 138 143 146 148 152
108 108 105 101 104 101 97 98 100 104 96 98 95 95 96 97 99 99 101 100 97 99 101 104 102 105 107 111 109 113 116 119 125 126 126 128 132 129 141 145 149 152 152 155
112 109 104 103 102 102 100 103 106 106 101 98 96 95 96 98 100 100 102 106 110 106 105 108 107 110 114 109 115 119 122 130 129 129 129 132 134 145 151 152 155 154 157 155
108 106 103 102 103 102 100 109 109 107 108 103 100 100 99 101 102 103 103 105 108 107 110 112 115 116 117 117 124 126 126 130 130 132 134 136 149 155 156 156 161 160 158 161
116 114 114 111 108 107 110 116 120 115 110 108 109 107 106 105 106 106 109 114 117 115 115 116 119 122 126 126 131 130 131 133 136 138 142 150 158 161 160 161 162 161 159 143
122 121 120 121 120 118 119 118 117 115 117 113 110 112 111 112 110 113 118 120 116 121 119 126 125 128 127 131 133 134 135 136 139 146 151 154 160 163 163 162 161 155 139 137
122 123 123 119 119 121 122 121 120 122 120 120 122 119 117 115 122 124 123 122 129 132 132 127 127 132 134 136 136 139 141 147 148 155 157 164 164 164 163 159 147 137 137 134

GFSCGP_250_spd_045.txt.gz
Wind_Speed
37 35 42 48 39 40 39 36 37 38 32 32 32 33 35 36 37 40 39 38 38 38 36 33 32 31 29 28 28 27 29 30 32 34 37 41 44 45 47 50 52 54 54 57
46 45 51 48 45 42 43 41 38 40 37 32 34 33 36 36 40 39 39 42 42 38 38 36 34 33 33 31 29 30 32 34 36 40 43 46 48 51 54 55 58 59 58 58
49 50 52 52 53 49 50 45 44 40 39 35 34 28 33 37 39 42 43 43 45 44 43 41 38 37 36 35 34 32 34 37 40 42 45 47 51 55 56 58 61 62 63 64
52 55 57 57 55 56 50 52 49 45 40 33 34 26 33 41 41 41 47 47 45 47 48 45 42 41 38 38 37 38 40 42 43 45 46 49 52 50 52 55 58 62 64 66
57 58 61 59 61 63 54 53 51 48 45 37 32 32 32 43 44 46 46 47 46 47 49 50 48 46 45 44 44 44 46 47 47 48 50 53 52 54 56 58 61 64 67 70
61 61 63 63 63 63 58 57 58 51 47 34 43 37 26 42 46 49 49 50 45 46 49 48 49 50 48 49 49 50 51 51 52 54 56 57 59 61 64 66 66 67 69 75
66 65 63 62 64 65 65 63 58 51 49 45 48 41 31 43 52 53 53 52 49 48 49 49 51 51 52 54 55 55 55 56 58 59 59 60 62 65 67 68 69 71 73 76
67 65 65 62 63 66 65 61 60 58 52 50 50 43 43 47 53 58 58 57 54 53 53 53 53 54 54 54 54 55 57 60 61 62 62 65 67 69 71 73 75 78 79 82
73 71 69 69 69 70 65 61 65 59 56 53 50 48 46 46 52 57 62 61 60 58 56 56 57 58 58 57 57 58 59 61 62 62 65 66 68 70 73 76 79 82 84 86
77 73 69 71 71 71 69 67 68 66 62 57 50 49 48 51 52 55 60 62 61 60 59 59 59 60 58 57 58 59 61 62 62 64 66 69 71 73 76 79 80 83 85 87
77 75 71 73 70 73 75 68 65 64 61 59 55 48 48 49 54 56 57 60 61 60 60 59 59 58 57 57 58 59 61 63 65 68 70 72 75 78 80 82 84 86 90 93
79 80 74 72 72 75 77 72 71 69 67 64 58 39 52 56 58 59 60 61 63 64 61 60 60 61 62 63 64 65 66 68 70 72 74 76 79 83 86 87 90 92 96 101
84 84 81 79 74 72 73 75 74 73 70 63 64 43 56 60 62 63 61 63 65 65 65 65 67 69 67 66 68 69 71 74 76 77 79 82 85 85 87 90 93 94 98 100
89 89 83 79 77 78 78 77 78 77 69 68 64 60 59 62 66 67 67 68 68 67 67 69 71 70 70 69 70 72 74 78 81 82 82 84 87 90 94 97 99 102 105 105
97 93 89 85 85 84 80 77 77 75 68 79 59 66 63 68 73 74 72 69 69 71 72 73 74 72 73 74 77 79 80 82 85 88 90 91 92 93 95 97 97 99 99 101
102 98 97 93 91 91 89 85 81 82 76 79 75 68 70 78 78 76 74 74 74 75 76 76 77 79 81 83 82 84 86 87 89 90 93 97 99 95 96 100 104 107 105 109
107 102 101 95 96 98 101 81 89 87 82 80 80 69 79 79 80 81 81 82 81 80 79 80 81 81 83 86 89 91 93 96 96 96 96 98 101 105 103 105 107 108 106 110
111 105 106 102 105 106 87 87 91 93 86 85 84 79 87 83 82 82 84 85 85 86 85 84 85 87 90 92 94 97 98 97 94 96 99 103 105 99 104 110 112 113 116 118
111 110 111 111 110 109 100 93 95 97 92 93 92 87 92 93 95 88 90 92 92 90 89 88 90 92 92 93 95 97 100 101 103 104 107 107 105 110 116 118 122 121 122 128
111 112 116 118 116 114 99 100 101 105 97 94 99 97 98 100 98 89 96 93 92 91 92 93 93 91 92 93 97 100 102 104 105 108 109 110 116 116 117 121 123 124 127 130
112 111 111 109 112 113 107 103 106 106 97 102 100 100 99 99 97 92 94 95 90 94 92 91 91 93 95 94 97 100 103 105 103 108 112 115 122 123 120 121 125 127 129 134
120 119 117 116 117 113 107 105 101 100 98 93 94 95 98 95 93 94 95 98 100 100 98 96 96 99 96 98 98 98 101 103 108 112 119 118 126 125 125 127 130 132 135 139
122 120 119 118 118 118 114 113 109 108 105 102 99 100 99 96 93 94 98 101 99 103 104 108 104 101 104 104 106 107 110 109 115 118 122 124 128 128 133 134 136 137 142 146
127 125 123 124 120 119 119 118 116 111 110 112 112 109 104 104 105 100 101 102 107 110 115 109 108 111 112 110 114 116 115 119 124 123 128 128 129 133 137 139 141 144 149 155
129 127 125 123 122 121 121 119 116 116 116 116 116 112 111 110 109 105 106 114 114 121 117 115 115 118 118 120 121 124 124 128 127 130 132 133 137 137 142 144 146 150 154 164
130 130 128 125 123 121 120 120 119 118 118 117 115 116 114 116 116 116 117 121 121 118 118 122 123 124 126 124 127 129 129 129 130 131 135 139 142 143 150 152 154 157 164 165

GFSCGP_250_spd_048.txt.gz
Wind_Speed
41 39 44 48 42 37 39 39 37 40 35 31 34 34 34 32 37 40 39 38 41 43 42 42 41 40 38 36 35 35 36 37 35 35 35 36 37 38 39 39 40 42 44 45
47 44 50 47 46 43 43 43 43 40 37 32 35 35 38 34 35 42 41 42 42 42 45 44 42 43 41 40 39 39 39 38 38 38 39 39 40 41 42 43 45 46 45 45
53 50 52 52 52 51 51 50 51 43 41 35 34 28 34 40 37 41 45 45 43 43 44 43 44 46 46 44 42 42 41 42 42 42 41 43 43 45 47 48 49 50 49 52
54 54 57 58 54 57 53 58 55 52 44 39 38 27 30 40 42 42 48 45 46 47 46 45 45 46 48 48 47 44 44 45 44 44 46 48 50 51 52 54 54 55 56 59
54 58 59 56 58 62 59 63 60 55 43 39 36 38 28 44 46 47 46 47 49 48 48 46 45 46 48 50 50 48 48 48 50 52 53 54 56 56 58 60 62 62 63 65
59 59 59 57 62 66 67 66 66 54 47 34 39 40 24 46 54 53 51 50 49 49 50 49 47 45 46 47 49 51 53 54 56 56 57 59 62 63 62 63 63 64 65 66
66 66 68 67 67 70 72 71 64 56 49 40 47 39 29 44 55 55 56 54 53 53 51 51 49 49 47 47 49 52 54 56 57 58 61 62 62 62 62 63 64 65 67 69
71 71 71 72 72 75 75 72 65 63 57 43 41 36 43 44 52 57 57 59 60 60 58 56 55 54 53 54 55 56 58 59 61 62 62 61 62 63 65 65 66 66 68 71
77 76 74 73 74 78 77 71 72 70 57 48 43 40 42 46 51 56 62 63 63 62 58 56 56 57 57 57 57 58 60 61 63 64 64 63 65 66 66 67 68 71 71 72
82 81 78 78 81 79 74 74 70 68 62 56 45 45 46 49 51 56 61 63 64 63 62 59 55 52 54 55 56 58 60 61 61 62 62 64 66 67 69 71 72 73 75 77
88 84 77 79 77 75 78 73 71 71 69 65 57 52 49 51 52 58 61 63 63 62 60 58 56 56 57 56 56 58 60 60 61 63 65 67 70 71 72 74 76 79 81 83
86 90 86 84 83 81 78 74 73 71 68 70 66 46 49 54 56 59 63 64 64 65 66 64 62 59 60 62 63 64 65 65 66 66 68 70 71 72 75 77 79 82 84 86
85 86 87 86 84 82 79 74 75 77 77 73 74 48 54 60 61 65 66 65 63 62 64 65 64 63 63 64 66 66 65 66 67 69 71 71 73 77 79 81 84 85 87 90
96 96 89 83 82 84 82 80 80 82 81 72 72 63 59 62 65 69 72 69 67 67 67 67 68 69 69 69 69 69 70 72 73 74 75 78 81 82 84 86 88 90 92 96
102 99 96 89 90 91 88 86 87 86 76 87 68 79 57 64 73 74 73 71 68 66 69 71 72 72 72 73 74 75 76 78 78 77 78 80 83 87 90 93 96 98 100 100
105 102 103 99 97 97 98 95 89 88 86 85 74 78 71 76 76 74 76 75 72 73 73 75 76 76 77 77 78 80 81 81 81 81 83 86 89 92 95 97 100 99 101 104
108 106 104 102 103 107 109 90 96 94 93 94 91 76 82 80 80 79 79 77 72 72 74 76 78 78 79 79 80 81 84 87 88 88 90 93 95 97 97 98 100 101 103 106
114 114 114 109 110 117 100 101 102 103 99 98 95 86 89 87 86 83 80 80 77 78 78 80 82 84 85 86 86 89 91 91 93 92 94 95 96 98 99 101 101 101 101 103
115 114 116 117 113 112 104 97 100 105 100 99 102 95 93 97 96 83 89 91 89 88 86 84 86 89 90 92 92 89 87 91 92 94 95 92 95 97 98 101 103 105 108 111
116 116 120 119 119 120 102 104 104 109 107 96 103 100 99 102 99 85 98 96 94 94 93 92 92 94 95 95 94 90 93 97 97 97 96 94 100 98 99 103 107 110 113 119
116 116 115 116 121 121 114 111 114 118 105 108 110 108 107 105 102 98 101 100 95 92 94 92 91 92 92 92 92 93 94 98 101 100 102 102 108 107 105 110 111 114 118 120
119 119 117 117 119 120 109 112 114 111 109 111 103 107 104 103 98 95 96 98 97 98 95 94 95 93 92 93 92 92 95 99 102 104 108 110 115 114 111 115 117 119 122 123
126 123 122 122 122 120 116 113 113 111 109 108 105 106 107 105 103 100 96 97 99 98 99 99 99 97 98 99 97 97 96 103 108 112 110 116 119 116 118 122 122 122 124 127
129 127 126 125 123 122 117 117 116 115 114 113 114 112 109 107 106 106 105 104 102 100 101 102 102 101 103 102 102 103 106 107 109 110 117 121 121 119 124 124 126 127 129 132
129 130 127 125 124 122 124 123 121 119 119 120 121 122 123 119 117 113 110 109 107 107 106 106 106 110 109 109 111 111 111 112 114 117 122 123 121 124 124 130 130 134 135 138
136 136 131 128 127 128 128 129 128 125 122 122 123 124 123 122 121 119 116 115 115 115 113 114 115 115 116 116 114 116 118 118 121 124 122 126 130 129 131 134 138 138 142 144